Location: Natural Bridges National Monument
(37.6093°N, 109.9767°W)
Time: 13:54:02
(UTC-06:00)

USA 32 - Visible Passes

Search period start: 30 September 2014 00:00
Search period end: 10 October 2014 00:00
Orbit: 779 x 783 km, 85.0° (Epoch: 02 September)

Date Brightness Start Highest point End Pass type
(mag) Time Alt. Az. Time Alt. Az. Time Alt. Az.
30 Sep 4.5 05:46:07 10° S 05:51:15 64° E 05:56:26 10° N visible
01 Oct 5.6 05:14:08 10° SSE 05:18:48 34° E 05:23:30 10° NNE visible
02 Oct 6.6 04:42:50 10° SE 04:46:27 19° E 04:50:05 10° NE visible
02 Oct 4.4 06:22:06 10° SSW 06:27:02 43° W 06:32:00 10° N visible
03 Oct 7.2 04:13:54 10° E 04:14:13 10° ENE 04:14:32 10° ENE visible
03 Oct 3.9 05:49:10 10° S 05:54:23 79° W 05:59:38 10° N visible
04 Oct 4.6 05:16:45 10° SSE 05:21:50 57° E 05:26:58 10° NNE visible
05 Oct 5.7 04:44:52 10° SSE 04:49:24 31° E 04:53:58 10° NNE visible
05 Oct 4.9 06:25:59 10° SW 06:30:19 26° WNW 06:34:42 10° NNW visible
06 Oct 6.6 04:13:44 10° ESE 04:17:05 17° E 04:20:25 10° NE visible
06 Oct 4.2 05:52:34 10° SSW 05:57:35 47° W 06:02:38 10° N visible
07 Oct 3.9 05:21:58 27° S 05:24:57 87° W 05:30:13 10° N visible
08 Oct 4.7 04:51:03 40° SE 04:52:26 51° E 04:57:29 10° NNE visible
08 Oct 5.5 06:31:41 14° W 06:33:42 16° WNW 06:36:56 10° NW visible
09 Oct 5.8 04:19:50 28° E 04:20:01 28° E 04:24:25 10° NNE visible
09 Oct 4.8 06:00:27 29° W 06:00:51 29° W 06:05:23 10° NNW visible
